Weather History for Rockland, ME

Change the Weather History Date:

Tuesday, November 20, 2012

  Actual Average Record
Temperature  
Mean Temperature 34 °F -  
Max Temperature 46 °F 42 °F 57 °F (1999)
Min Temperature 23 °F 30 °F 17 °F (2008)
Degree Days  
Heating Degree Days 30    
Moisture  
Dew Point 27 °F    
Average Humidity 74    
Maximum Humidity 100    
Minimum Humidity 46    
Precipitation  
Precipitation 0.00 in - - ()
Sea Level Pressure  
Sea Level Pressure 30.19 in    
Wind  
Wind Speed 3 mph (North)    
Max Wind Speed 14 mph    
Max Gust Speed 20 mph    
Visibility 10 miles    
Events      
Averages and records for this station are not official NWS values.
T = Trace of Precipitation, MM = Missing Value Source: NWS Daily Summary

Daily Weather History Graph

Daily Weather History Graph

Search for Another Location

Airport:

Trip Planner

Search our weather history database for the weather conditions in past years. The results will help you decide how hot, cold, wet, or windy it might be!

Date:

Astronomy

Nov. 20, 2012 Rise Set
Actual Time 6:38 AM EST 4:05 PM EST
Civil Twilight 6:06 AM EST 4:36 PM EST
Nautical Twilight 5:31 AM EST 5:12 PM EST
Astronomical Twilight 4:57 AM EST 5:46 PM EST
Moon 12:03 PM EST (11/20) 11:42 PM EST (11/20)
Length of Visible Light 10h 30m
Length of Day
9h 26m
Waxing Crescent, 51% of the Moon is Illuminated
Nov 20
Waxing Crescent
Nov 28
Full
Dec 6
Last Quarter
Dec 13
New
Dec 20
First Quarter

Hourly Weather History & Observations

Time (EST) Temp. Windchill Dew Point Humidity Pressure Visibility Wind Dir Wind Speed Gust Speed Precip Events Conditions
12:15 AM 26.6 °F - 26.6 °F 100% 30.26 in 10.0 mi Calm Calm - N/A   Clear
12:35 AM 26.6 °F 22.6 °F 26.6 °F 100% 30.26 in 9.0 mi West 3.5 mph - N/A   Clear
12:55 AM 26.6 °F - 23.0 °F 86% 30.24 in 9.0 mi Calm Calm - N/A   Clear
1:15 AM 26.6 °F 22.6 °F 26.6 °F 100% 30.25 in 10.0 mi West 3.5 mph - N/A   Clear
1:35 AM 26.6 °F - 26.6 °F 100% 30.24 in 10.0 mi Calm Calm - N/A   Clear
1:55 AM 28.4 °F 23.3 °F 24.8 °F 86% 30.24 in 8.0 mi WNW 4.6 mph - N/A   Clear
2:15 AM 24.8 °F - 23.0 °F 93% 30.24 in 10.0 mi Calm Calm - N/A   Clear
2:35 AM 26.6 °F - 23.0 °F 86% 30.24 in 10.0 mi Calm Calm - N/A   Clear
2:55 AM 24.8 °F - 21.2 °F 86% 30.23 in 10.0 mi Calm Calm - N/A   Clear
3:15 AM 26.6 °F - 26.6 °F 100% 30.22 in 10.0 mi Calm Calm - N/A   Clear
3:35 AM 24.8 °F 20.5 °F 23.0 °F 93% 30.22 in 10.0 mi West 3.5 mph - N/A   Clear
3:55 AM 26.6 °F 22.6 °F 24.8 °F 93% 30.22 in 3.0 mi West 3.5 mph - N/A   Clear
4:15 AM 23.0 °F - 19.4 °F 86% 30.21 in 10.0 mi Calm Calm - N/A   Clear
4:35 AM 24.8 °F 20.5 °F 21.2 °F 86% 30.21 in 10.0 mi West 3.5 mph - N/A   Clear
4:55 AM 24.8 °F 20.5 °F 24.8 °F 100% 30.21 in 10.0 mi West 3.5 mph - N/A   Clear
5:15 AM 24.8 °F - 24.8 °F 100% 30.21 in 10.0 mi Calm Calm - N/A   Clear
5:55 AM 23.0 °F - 21.2 °F 93% 30.20 in 10.0 mi Calm Calm - N/A   Clear
6:15 AM 24.8 °F 19.1 °F 23.0 °F 93% 30.20 in 10.0 mi West 4.6 mph - N/A   Clear
6:35 AM 26.6 °F - 26.6 °F 100% 30.20 in 10.0 mi Calm Calm - N/A   Clear
6:55 AM 26.6 °F 21.2 °F 24.8 °F 93% 30.21 in 10.0 mi WNW 4.6 mph - N/A   Clear
7:15 AM 24.8 °F - 23.0 °F 93% 30.21 in 10.0 mi Calm Calm - N/A   Clear
7:35 AM 24.8 °F - 24.8 °F 100% 30.21 in 10.0 mi Calm Calm - N/A   Clear
7:55 AM 28.4 °F - 26.6 °F 93% 30.21 in 10.0 mi Calm Calm - N/A   Clear
8:15 AM 35.6 °F - 35.6 °F 100% 30.20 in 10.0 mi Calm Calm - N/A   Clear
8:35 AM 39.2 °F 35.0 °F 35.6 °F 87% 30.20 in 10.0 mi NNE 5.8 mph - N/A   Clear
8:55 AM 39.2 °F 35.9 °F 30.2 °F 70% 30.20 in 10.0 mi NNE 4.6 mph - N/A   Clear
9:15 AM 41.0 °F 37.1 °F 30.2 °F 65% 30.20 in 10.0 mi North 5.8 mph - N/A   Clear
9:35 AM 42.8 °F 38.0 °F 30.2 °F 61% 30.20 in 10.0 mi NNE 8.1 mph - N/A   Clear
9:55 AM 42.8 °F 38.6 °F 28.4 °F 57% 30.20 in 10.0 mi NNE 6.9 mph - N/A   Clear
10:15 AM 42.8 °F 37.0 °F 30.2 °F 61% 30.19 in 10.0 mi NE 10.4 mph - N/A   Clear
10:35 AM 42.8 °F 35.8 °F 30.2 °F 61% 30.19 in 10.0 mi NE 13.8 mph - N/A   Clear
10:55 AM 44.6 °F 39.7 °F 28.4 °F 53% 30.18 in 10.0 mi NNE 9.2 mph 16.1 mph N/A   Clear
11:15 AM 44.6 °F 38.1 °F 28.4 °F 53% 30.17 in 10.0 mi NNE 13.8 mph 19.6 mph N/A   Clear
11:35 AM 44.6 °F 38.4 °F 28.4 °F 53% 30.17 in 10.0 mi NE 12.7 mph - N/A   Clear
11:55 AM 44.6 °F 38.8 °F 28.4 °F 53% 30.17 in 10.0 mi NNE 11.5 mph 16.1 mph N/A   Clear
12:15 PM 44.6 °F 39.2 °F 28.4 °F 53% 30.15 in 10.0 mi NNE 10.4 mph - N/A   Clear
12:35 PM 46.4 °F 42.4 °F 28.4 °F 50% 30.15 in 10.0 mi NE 8.1 mph - N/A   Clear
12:55 PM 46.4 °F 42.4 °F 30.2 °F 53% 30.15 in 10.0 mi NNE 8.1 mph - N/A   Clear
1:15 PM 46.4 °F 43.5 °F 28.4 °F 50% 30.15 in 10.0 mi NNE 5.8 mph - N/A   Clear
1:35 PM 46.4 °F 42.9 °F 28.4 °F 50% 30.15 in 10.0 mi NNE 6.9 mph - N/A   Clear
1:55 PM 46.4 °F 44.3 °F 28.4 °F 50% 30.14 in 10.0 mi NNE 4.6 mph - N/A   Clear
2:15 PM 46.4 °F 42.9 °F 28.4 °F 50% 30.14 in 10.0 mi NE 6.9 mph - N/A   Clear
2:35 PM 46.4 °F 43.5 °F 26.6 °F 46% 30.15 in 10.0 mi NNE 5.8 mph - N/A   Clear
2:55 PM 46.4 °F 44.3 °F 28.4 °F 50% 30.15 in 10.0 mi NNE 4.6 mph - N/A   Clear
3:15 PM 46.4 °F 44.3 °F 28.4 °F 50% 30.15 in 10.0 mi NNE 4.6 mph - N/A   Clear
3:35 PM 44.6 °F 43.1 °F 28.4 °F 53% 30.15 in 10.0 mi North 3.5 mph - N/A   Clear
3:55 PM 44.6 °F - 28.4 °F 53% 30.15 in 10.0 mi Calm Calm - N/A   Clear
4:15 PM 42.8 °F - 28.4 °F 57% 30.15 in 10.0 mi Calm Calm - N/A   Clear
4:35 PM 41.0 °F - 30.2 °F 65% 30.15 in 10.0 mi Calm Calm - N/A   Clear
4:55 PM 42.8 °F 41.1 °F 30.2 °F 61% 30.15 in 10.0 mi North 3.5 mph - N/A   Clear
5:15 PM 42.8 °F 41.1 °F 28.4 °F 57% 30.15 in 10.0 mi North 3.5 mph - N/A   Clear
5:35 PM 42.8 °F 41.1 °F 26.6 °F 53% 30.15 in 10.0 mi North 3.5 mph - N/A   Clear
5:55 PM 39.2 °F - 24.8 °F 56% 30.16 in 10.0 mi Calm Calm - N/A   Clear
6:15 PM 37.4 °F - 24.8 °F 60% 30.16 in 10.0 mi Calm Calm - N/A   Clear
6:35 PM 35.6 °F 32.8 °F 24.8 °F 65% 30.16 in 10.0 mi North 3.5 mph - N/A   Clear
6:55 PM 33.8 °F 30.8 °F 24.8 °F 70% 30.16 in 10.0 mi North 3.5 mph - N/A   Clear
7:15 PM 33.8 °F - 28.4 °F 81% 30.16 in 10.0 mi Calm Calm - N/A   Clear
7:35 PM 30.2 °F - 26.6 °F 86% 30.17 in 10.0 mi Calm Calm - N/A   Clear
7:55 PM 30.2 °F - 26.6 °F 86% 30.17 in 10.0 mi Calm Calm - N/A   Clear
8:15 PM 30.2 °F - 26.6 °F 86% 30.17 in 10.0 mi Calm Calm - N/A   Clear
8:35 PM 30.2 °F - 24.8 °F 80% 30.17 in 10.0 mi Calm Calm - N/A   Clear
8:55 PM 30.2 °F - 24.8 °F 80% 30.17 in 10.0 mi Calm Calm - N/A   Clear
9:15 PM 30.2 °F - 26.6 °F 86% 30.17 in 10.0 mi Calm Calm - N/A   Clear
9:35 PM 30.2 °F - 26.6 °F 86% 30.17 in 10.0 mi Calm Calm - N/A   Clear
9:55 PM 30.2 °F 26.7 °F 26.6 °F 86% 30.17 in 10.0 mi North 3.5 mph - N/A   Clear
10:15 PM 32.0 °F 28.7 °F 28.4 °F 87% 30.17 in 10.0 mi North 3.5 mph - N/A   Clear
10:35 PM 39.2 °F 37.0 °F 30.2 °F 70% 30.17 in 10.0 mi North 3.5 mph - N/A   Clear
10:55 PM 41.0 °F 37.1 °F 32.0 °F 70% 30.18 in 10.0 mi NNE 5.8 mph - N/A   Clear
11:15 PM 41.0 °F 35.8 °F 32.0 °F 70% 30.18 in 10.0 mi NNE 8.1 mph - N/A   Clear
11:35 PM 41.0 °F 36.4 °F 32.0 °F 70% 30.17 in 10.0 mi NNE 6.9 mph - N/A   Clear
11:55 PM 41.0 °F 36.4 °F 32.0 °F 70% 30.18 in 10.0 mi NNE 6.9 mph - N/A   Clear